weather.gov     
National Weather Service

Regional Weather Roundup
NWS Homepage
This page is being discontinued on March 12, 2014.
The same data is available at this site. Please update your bookmarks.
Thank you, and we apologize for the inconvenience.
Please send an email to SR-SRH.Webmaster@noaa.gov with any concerns.


Current Version
Previous Version:    01  02  03  04  05  06  07  08  09  10  11  12  13  14  15  16  17  18  19  20  21  22  23  24  25  26  27  28  29  30  
   31  32  33  34  35  36  37  38  39  40  41  42  43  44  45  46  47  48  49  50  51  52  53  
[Printable]
239
ASCA42 TJSJ 010711
RWRPR
PUERTO RICO/U.S. VIRGIN ISLANDS HOURLY WEATHER ROUNDUP
NATIONAL WEATHER SERVICE SAN JUAN PR
300 AM AST FRI AUG 01 2014

PRZ001-004-010800-
PUERTO RICO

CITY           SKY/WX    TMP DP  RH WIND       PRES   REMARKS
SAN JUAN LMM   PTCLDY    79  73  83 CALM      29.97F
PONCE          PTCLDY    81  72  74 NE6       29.94F
CEIBA          PTCLDY    81  73  78 SE7       30.00F
$$

PRZ006-007-010800-
U.S. VIRGIN ISLANDS

CITY           SKY/WX    TMP DP  RH WIND       PRES   REMARKS
CHARLOTTE AMA  PTCLDY    81  77  89 E7        29.97F
CHRISTIANSTED  PTCLDY    77  73  88 N5        29.99F
$$

HOURLY WEATHER ROUNDUP FOR THE NEWS MEDIA

CITY           SKY/WX    TMP DP  RH WIND       PRES   REMARKS
MIAMI          MOCLDY    79  74  84 E5        29.97F
ORLANDO        CLEAR     79  71  76 SW5       29.96F
NEW YORK       MOCLDY    73  69  87 S13       30.17S
NEWARK         MOCLDY    71  66  84 S7        30.16S
CHICAGO        CLEAR     66  57  72 W5        30.04S
HARTFORD       MOCLDY    65  63  93 SW5       30.18S
BOSTON         PTCLDY    68  61  78 SW8       30.17R
DALLAS         CLOUDY    71  66  84 N7        30.02S
PHILADELPHIA   MOCLDY    72  67  84 S5        30.16F




U.S. Dept. of Commerce
NOAA National Weather Service
1325 East West Highway
Silver Spring, MD 20910
E-mail: w-nws.webmaster@noaa.gov
Page last modified: May 16, 2007
NATIONAL WEATHER SERVICE: for Safety, for Work, for Fun - FOR LIFE